Weather in Natashino

Russia / Republic of Crimea     45°24′28″N   33°16′17″E
temp.,
°C
wind,
m/s
gust,
m/s
humid.,
%
clouds,
%
prec.,
mm/h
press.,
hPa
HPBL,
m
23 october, sat
sat2300:00+14ssw4887100 0.0 1018189
03:00+14ssw4790100 0.0 1017140
06:00+14ssw4892100 0.0 1017173
09:00+16ssw4881100 0.0 1017355
12:00+19wsw5760100 0.0 1018703
15:00+19wnw5555100 0.0 1017936
18:00+15nne5858100 0.0 1019335
21:00+14nne356498 0.0 1020243
24 october, sun
sun2400:00+12nne3475100 0.0 102188
03:00+10ne3486100 0.0 102169
06:00+11nne5869100 0.0 1022366
09:00+10nnw5869100 1.2 1023537
12:00+11n7843100 0.1 10241016
15:00+12nnw6740100 0.1 10241586
18:00+10nw594776 0.0 1025235
21:00+9n611505 0.0 1027372
25 october, mon
mon2500:00+7nnw486229 0.0 1028183
03:00+6n49745 0.0 1030238
06:00+4n37809 0.0 1031185
09:00+7nne466124 0.0 1032905
12:00+9nne454546 0.0 10321447
15:00+10nne54402 0.0 10311445
18:00+7nne33493 0.0 103241
21:00+6ne22550 0.0 103221
26 october, tue
tue2600:00+4ene34530 0.0 103247
03:00+4e33590 0.0 103227
06:00+3ene34630 0.0 103248
09:00+6e47540 0.0 1031255
12:00+11e67400 0.0 10301024
15:00+13e56360 0.0 10281173
18:00+9e49480 0.0 1028204
21:00+6ene612650 0.0 1027325
27 october, wed
wed2700:00+5e411670 0.0 1026269
03:00+4e36760 0.0 1026106
06:00+3e22860 0.0 102515
09:00+7ese11660 0.0 102577
12:00+13nw45480 0.0 1025813
15:00+13wnw55535 0.0 1024837
18:00+9wnw3369100 0.0 102440
21:00+8wnw2273100 0.0 102427